Tracking 29892 objects as of 21-Nov-2024
HD Live streaming from Space Station
objects crossing your sky now

ONEWEB-0432

Track ONEWEB-0432 now!
10-day predictions
ONEWEB-0432 is classified as:


NORAD ID: 50502
Int'l Code: 2021-132AK
Perigee: 1,195.9 km
Apogee: 1,197.8 km
Inclination: 87.9 °
Period: 109.2 minutes
Semi major axis: 7567 km
RCS: Unknown
Launch date: December 27, 2021
Source: United Kingdom (UK)
Launch site: TYURATAM MISSILE AND SPACE COMPLEX (TTMTR)
Your satellite tracking list
Your tracking list is empty




NASA's NSSDC Master Catalog

Two Line Element Set (TLE):
1 50502U 21132AK  24325.80822957 -.00000001  00000-0 -35875-4 0  9993
2 50502  87.9094  89.5432 0001272 142.3609 217.7613 13.18685778146012
Source of the keplerian elements: AFSPC